User: anonymous
Location: Churchill
(58.7670°N, 94.1670°W)
Time: 07:26:52
(UTC-05:00)
Language:

Cosmos 1315 Rocket - Orbit

View from above orbital plane
View from above orbital plane
View from above satellite
View from above satellite

Ground track
Ground track

The orbit data is extracted from the following two-line orbital elements,

1 12904U 81103B   14274.76350410  .00001993  00000-0  14576-3 0  5953
2 12904 081.1795 324.2044 0030670 078.6420 281.8244 15.02818476344058
Epoch (UTC): 01 October 2014 18:19:26
Eccentricity: 0.0030670
inclination: 81.1795°
perigee height: 537 km
apogee height: 579 km
right ascension of ascending node: 324.2044°
argument of perigee: 78.6420°
revolutions per day: 15.02818476
mean anomaly at epoch: 281.8244°
orbit number at epoch: 34405

The dashed part of the orbit path shows where the satellite is in the earth's shadow,  

DLR